| time (UTC) | temp F | wind direction | speed MPH | gust MPH | rain 1hr in | rain 24hr in | rain mn in | humidity % | barometer mb |
| 20260506203515 | 85 | 84 | 0.0 | 1.0 | 0.00 | 0.24 | 0.24 | 17 | 1008.0 |
| 20260506202455 | 84 | 84 | 0.0 | 0.0 | 0.00 | 0.24 | 0.24 | 12 | 1008.0 |
| 20260506201517 | 84 | 84 | 0.0 | 0.0 | 0.00 | 0.24 | 0.24 | 7 | 1008.1 |
| 20260506200540 | 83 | 84 | 0.0 | 0.0 | 0.00 | 0.24 | 0.24 | 7 | 1008.4 |
| 20260506195532 | 83 | 84 | 0.0 | 0.0 | 0.00 | 0.24 | 0.24 | 4 | 1008.4 |
| 20260506193436 | 82 | 84 | 0.0 | 2.0 | 0.00 | 0.24 | 0.24 | 1 | 1008.5 |
| 20260506192456 | 82 | 37 | 0.0 | 1.0 | 0.00 | 0.24 | 0.24 | 1 | 1008.4 |
| 20260506191427 | 81 | 0 | 0.0 | 0.0 | 0.00 | 0.24 | 0.24 | 1 | 1008.6 |
| 20260506190419 | 81 | 0 | 0.0 | 0.0 | 0.00 | 0.24 | 0.24 | 1 | 1008.9 |
| 20260506185412 | 80 | 0 | 0.0 | 0.0 | 0.00 | 0.24 | 0.24 | 1 | 1008.8 |
| 20260506184356 | 80 | 0 | 0.0 | 0.0 | 0.00 | 0.24 | 0.24 | 1 | 1008.8 |
| 20260506183323 | 80 | 0 | 0.0 | 0.0 | 0.00 | 0.24 | 0.24 | 1 | 1009.1 |
| 20260506182316 | 80 | 0 | 0.0 | 0.0 | 0.05 | 0.24 | 0.24 | 3 | 1009.3 |
| 20260506181324 | 81 | 0 | 0.0 | 0.0 | 0.13 | 0.24 | 0.24 | 9 | 1009.6 |
| 20260506180310 | 81 | 0 | 0.0 | 0.0 | 1.26 | 0.12 | 0.13 | 11 | 1009.9 |
| 20260506175329 | 82 | 0 | 0.0 | 0.0 | 0.10 | 0.04 | 0.04 | 14 | 1009.9 |
| 20260506174256 | 82 | 0 | 0.0 | 1.0 | 0.25 | 0.02 | 0.02 | 21 | 1010.1 |
| 20260506173304 | 82 | 0 | 0.0 | 0.0 | 0.00 | 0.00 | 0.00 | 25 | 1010.3 |
| 20260506172305 | 82 | 0 | 0.0 | 0.0 | 0.00 | 0.00 | 0.00 | 28 | 1010.2 |
| 20260506171252 | 82 | 0 | 0.0 | 0.0 | 0.00 | 0.00 | 0.00 | 27 | 1010.3 |
| 20260506170219 | 82 | 0 | 0.0 | 1.0 | 0.00 | 0.00 | 0.00 | 26 | 1010.4 |
| 20260506164047 | 81 | 351 | 0.0 | 3.0 | 0.00 | 0.00 | 0.00 | 24 | 1010.4 |
| 20260506163051 | 81 | 87 | 0.0 | 3.0 | 0.00 | 0.00 | 0.00 | 18 | 1010.1 |
| 20260506162048 | 81 | 140 | 0.0 | 0.0 | 0.00 | 0.00 | 0.00 | 17 | 1009.9 |
| 20260506161053 | 81 | 146 | 0.0 | 0.0 | 0.00 | 0.00 | 0.00 | 18 | 1009.9 |
| 20260506160055 | 81 | 150 | 0.0 | 0.0 | 0.00 | 0.00 | 0.00 | 16 | 1009.9 |
| 20260506155103 | 81 | 150 | 0.0 | 0.0 | 0.00 | 0.00 | 0.00 | 14 | 1009.7 |
| 20260506152848 | 80 | 126 | 0.0 | 0.0 | 0.00 | 0.00 | 0.00 | 8 | 1009.7 |
| 20260506151857 | 80 | 111 | 0.0 | 1.0 | 0.00 | 0.00 | 0.00 | 5 | 1009.8 |
| 20260506150854 | 79 | 111 | 0.0 | 0.0 | 0.00 | 0.00 | 0.00 | 1 | 1009.7 |
| 20260506145856 | 79 | 111 | 0.0 | 0.0 | 0.00 | 0.00 | 0.00 | 1 | 1009.4 |
| 20260506144912 | 79 | 111 | 0.0 | 0.0 | 0.00 | 0.00 | 0.00 | 1 | 1009.4 |
| 20260506143929 | 79 | 111 | 0.0 | 0.0 | 0.00 | 0.00 | 0.00 | 1 | 1009.4 |
| 20260506142939 | 78 | 111 | 0.0 | 1.0 | 0.00 | 0.00 | 0.00 | 1 | 1009.1 |
| 20260506141911 | 78 | 90 | 0.0 | 2.0 | 0.00 | 0.00 | 0.00 | 1 | 1009.0 |
| 20260506140920 | 78 | 90 | 0.0 | 1.0 | 0.00 | 0.00 | 0.00 | 1 | 1009.1 |
| 20260506135931 | 78 | 90 | 0.0 | 2.0 | 0.00 | 0.00 | 0.00 | 1 | 1009.2 |
| 20260506134917 | 77 | 83 | 0.0 | 2.0 | 0.00 | 0.00 | 0.00 | 1 | 1009.3 |
| 20260506133917 | 77 | 83 | 0.0 | 0.0 | 0.00 | 0.00 | 0.00 | 1 | 1009.4 |
| 20260506130531 | 77 | 83 | 0.0 | 0.0 | 0.00 | 0.00 | 0.00 | 1 | 1009.5 |
| 20260506125540 | 76 | 83 | 0.0 | 0.0 | 0.00 | 0.00 | 0.00 | 1 | 1009.3 |
| 20260506124544 | 76 | 83 | 0.0 | 0.0 | 0.00 | 0.00 | 0.00 | 1 | 1009.2 |
| 20260506123541 | 76 | 83 | 0.0 | 0.0 | 0.00 | 0.00 | 0.00 | 1 | 1009.1 |
| 20260506122555 | 76 | 83 | 0.0 | 0.0 | 0.00 | 0.00 | 0.00 | 1 | 1009.0 |
| 20260506121540 | 76 | 83 | 0.0 | 0.0 | 0.00 | 0.00 | 0.00 | 1 | 1009.0 |
| 20260506120513 | 76 | 83 | 0.0 | 0.0 | 0.00 | 0.00 | 0.00 | 1 | 1008.9 |
| 20260506115453 | 76 | 83 | 0.0 | 0.0 | 0.00 | 0.00 | 0.00 | 1 | 1008.8 |
| 20260506114514 | 76 | 83 | 0.0 | 0.0 | 0.00 | 0.00 | 0.00 | 1 | 1008.7 |
| 20260506113449 | 76 | 83 | 0.0 | 1.0 | 0.00 | 0.00 | 0.00 | 1 | 1008.8 |
| 20260506112433 | 76 | 83 | 0.0 | 0.0 | 0.00 | 0.00 | 0.00 | 1 | 1008.6 |
| 20260506111359 | 76 | 83 | 0.0 | 0.0 | 0.00 | 0.00 | 0.00 | 1 | 1008.5 |
| 20260506105157 | 76 | 83 | 0.0 | 1.0 | 0.00 | 0.00 | 0.00 | 2 | 1007.9 |
| 20260506104215 | 77 | 107 | 0.0 | 0.0 | 0.00 | 0.00 | 0.00 | 3 | 1007.8 |
| 20260506100926 | 77 | 90 | 0.0 | 1.0 | 0.00 | 0.00 | 0.00 | 3 | 1007.8 |
| 20260506095937 | 77 | 111 | 0.0 | 1.0 | 0.00 | 0.00 | 0.00 | 3 | 1007.8 |
| 20260506094934 | 77 | 109 | 1.0 | 12.0 | 0.00 | 0.00 | 0.00 | 3 | 1007.7 |
| 20260506093917 | 77 | 95 | 1.0 | 12.0 | 0.00 | 0.00 | 0.00 | 2 | 1007.5 |
| 20260506092925 | 77 | 107 | 0.0 | 6.0 | 0.00 | 0.00 | 0.00 | 2 | 1007.4 |
| 20260506091901 | 77 | 159 | 0.0 | 4.0 | 0.00 | 0.00 | 0.00 | 2 | 1007.4 |
| 20260506085814 | 77 | 92 | 0.0 | 9.0 | 0.00 | 0.00 | 0.00 | 4 | 1007.4 |
| 20260506084830 | 77 | 203 | 0.0 | 9.0 | 0.00 | 0.00 | 0.00 | 4 | 1007.3 |
| 20260506083817 | 77 | 90 | 0.0 | 5.0 | 0.00 | 0.00 | 0.00 | 4 | 1007.4 |
| 20260506082827 | 77 | 96 | 0.0 | 5.0 | 0.00 | 0.00 | 0.00 | 5 | 1007.4 |
| 20260506081758 | 77 | 77 | 0.0 | 2.0 | 0.00 | 0.00 | 0.00 | 5 | 1007.5 |
| 20260506080823 | 78 | 91 | 0.0 | 6.0 | 0.00 | 0.00 | 0.00 | 6 | 1007.6 |
| 20260506072747 | 78 | 92 | 0.0 | 6.0 | 0.00 | 0.00 | 0.00 | 7 | 1008.1 |
| 20260506071722 | 78 | 108 | 0.0 | 6.0 | 0.00 | 0.00 | 0.00 | 7 | 1008.3 |
| 20260506060344 | 78 | 103 | 0.0 | 6.0 | 0.00 | 0.00 | 0.00 | 12 | 1008.5 |
| 20260506051205 | 79 | 117 | 1.0 | 10.0 | 0.00 | 0.00 | 0.00 | 19 | 1008.3 |
| 20260506050201 | 79 | 115 | 2.0 | 9.0 | 0.00 | 0.00 | 0.00 | 20 | 1008.4 |
| 20260506044202 | 79 | 146 | 1.0 | 7.0 | 0.00 | 0.00 | 0.00 | 23 | 1008.4 |
| 20260506043129 | 79 | 180 | 0.0 | 5.0 | 0.00 | 0.00 | 0.00 | 24 | 1008.3 |
| 20260506042144 | 79 | 153 | 1.0 | 8.0 | 0.00 | 0.00 | 0.00 | 25 | 1008.4 |
| 20260506041128 | 79 | 98 | 0.0 | 8.0 | 0.00 | 0.00 | 0.00 | 27 | 1008.4 |
| 20260506040111 | 79 | 96 | 0.0 | 7.0 | 0.00 | 0.00 | 0.00 | 28 | 1008.3 |
| 20260506035105 | 79 | 97 | 1.0 | 11.0 | 0.00 | 0.00 | 0.00 | 29 | 1008.1 |
| 20260506034127 | 79 | 90 | 1.0 | 11.0 | 0.00 | 0.00 | 0.00 | 30 | 1008.0 |
| 20260506033128 | 79 | 112 | 1.0 | 6.0 | 0.00 | 0.00 | 0.00 | 32 | 1008.0 |
| 20260506032107 | 80 | 69 | 0.0 | 7.0 | 0.00 | 0.00 | 0.00 | 34 | 1008.0 |
| 20260506031042 | 80 | 182 | 0.0 | 2.0 | 0.00 | 0.00 | 0.00 | 36 | 1008.0 |
| 20260506030041 | 80 | 107 | 0.0 | 2.0 | 0.00 | 0.00 | 0.00 | 37 | 1007.8 |
| 20260506023935 | 80 | 108 | 0.0 | 1.0 | 0.00 | 0.00 | 0.00 | 41 | 1007.5 |
| 20260506022916 | 80 | 108 | 1.0 | 4.0 | 0.00 | 0.00 | 0.00 | 42 | 1007.4 |
| 20260506021853 | 80 | 80 | 0.0 | 4.0 | 0.00 | 0.00 | 0.00 | 43 | 1007.1 |
| 20260506020820 | 80 | 81 | 1.0 | 6.0 | 0.00 | 0.00 | 0.00 | 44 | 1007.0 |
| 20260506014735 | 80 | 159 | 1.0 | 7.0 | 0.00 | 0.00 | 0.00 | 45 | 1006.7 |
| 20260506013717 | 81 | 104 | 1.0 | 7.0 | 0.00 | 0.00 | 0.00 | 46 | 1006.4 |
| 20260506012719 | 81 | 103 | 0.0 | 2.0 | 0.00 | 0.00 | 0.00 | 47 | 1006.4 |
| 20260506011712 | 81 | 169 | 1.0 | 8.0 | 0.00 | 0.00 | 0.00 | 48 | 1006.2 |
| 20260506010711 | 81 | 138 | 1.0 | 8.0 | 0.00 | 0.00 | 0.00 | 49 | 1006.1 |
| 20260506005713 | 82 | 170 | 1.0 | 7.0 | 0.00 | 0.00 | 0.00 | 50 | 1006.0 |
| 20260506004705 | 82 | 96 | 0.0 | 6.0 | 0.00 | 0.00 | 0.00 | 52 | 1005.9 |
| 20260506003644 | 82 | 89 | 0.0 | 8.0 | 0.00 | 0.00 | 0.00 | 53 | 1005.9 |
| 20260506002631 | 82 | 97 | 0.0 | 4.0 | 0.00 | 0.00 | 0.00 | 55 | 1005.9 |
| 20260506001638 | 82 | 113 | 0.0 | 3.0 | 0.00 | 0.00 | 0.00 | 56 | 1005.9 |
| 20260506000604 | 82 | 121 | 0.0 | 12.0 | 0.00 | 0.00 | 0.00 | 57 | 1006.0 |
| 20260505234444 | 83 | 74 | 0.0 | 6.0 | 0.00 | 0.00 | 0.00 | 57 | 1005.9 |
| 20260505233507 | 83 | 93 | 0.0 | 8.0 | 0.00 | 0.00 | 0.00 | 58 | 1005.8 |
| 20260505232459 | 83 | 86 | 1.0 | 8.0 | 0.00 | 0.00 | 0.00 | 58 | 1005.7 |
| 20260505231505 | 83 | 250 | 1.0 | 8.0 | 0.00 | 0.00 | 0.00 | 59 | 1005.7 |
| 20260505230522 | 84 | 90 | 1.0 | 8.0 | 0.00 | 0.00 | 0.00 | 60 | 1005.8 |
| 20260505225541 | 84 | 91 | 0.0 | 4.0 | 0.00 | 0.00 | 0.00 | 58 | 1005.8 |
| 20260505221138 | 85 | 88 | 2.0 | 8.0 | 0.00 | 0.00 | 0.00 | 59 | 1005.7 |
| 20260505220200 | 85 | 61 | 0.0 | 6.0 | 0.00 | 0.00 | 0.00 | 57 | 1005.7 |
| 20260505215222 | 85 | 244 | 1.0 | 7.0 | 0.00 | 0.00 | 0.00 | 59 | 1005.9 |
| 20260505213118 | 85 | 100 | 1.0 | 8.0 | 0.00 | 0.00 | 0.00 | 60 | 1006.3 |
| 20260505205829 | 85 | 91 | 1.0 | 8.0 | 0.00 | 0.00 | 0.00 | 62 | 1006.7 |
| 20260505204759 | 85 | 55 | 2.0 | 8.0 | 0.00 | 0.00 | 0.00 | 63 | 1006.7 |